RH
10 12 12 12 10 8 8 9 10 14 15 19 19 18 20 21 18 18 16 16 29 43 48 49 58 53 49 77 96 94 91 88 94 80 66 55 50 48 48 58 50 37 20
20 22 23 20 19 17 19 16 13 12 15 14 15 20 20 19 22 20 17 17 15 20 34 40 42 46 50 67 88 94 93 90 93 98 93 74 64 59 52 57 57 51 36
34 31 32 31 34 37 37 36 35 29 15 14 15 14 17 20 19 21 22 18 16 15 15 29 37 47 54 62 79 91 94 86 82 96 99 92 78 72 63 63 60 57 52
44 39 36 37 43 41 39 34 31 29 26 20 16 16 13 13 18 22 22 23 20 17 14 14 19 35 49 60 71 78 90 87 72 85 97 99 92 86 76 71 69 66 58
59 60 61 56 48 44 38 33 30 28 27 24 22 19 16 13 13 19 23 23 24 22 19 15 21 28 34 50 58 75 82 81 75 78 92 100 97 97 91 80 73 75 62
61 60 58 57 55 55 50 51 51 47 43 34 27 21 20 22 16 14 18 22 23 23 22 19 17 17 30 33 57 64 66 72 89 79 81 92 96 98 98 91 85 85 80
80 78 77 76 74 73 69 65 56 43 44 43 36 27 22 21 23 16 13 14 17 20 20 18 18 17 17 23 34 59 61 66 90 76 76 78 85 96 99 100 94 87 80
95 94 91 84 81 80 83 80 56 49 48 43 43 41 28 22 22 20 19 12 12 11 12 12 13 14 16 25 31 47 72 78 98 97 97 98 95 89 97 100 99 99 98
99 99 100 100 94 82 83 80 70 50 50 46 46 47 41 33 29 29 30 27 18 16 16 15 14 12 11 11 21 35 46 53 72 70 72 66 66 85 98 97 91 99 100
99 98 99 99 99 100 100 93 86 61 48 54 48 42 38 36 33 32 32 32 33 26 20 24 29 31 26 26 42 49 40 50 68 85 80 85 94 95 91 97 82 90 94
88 96 99 99 99 98 99 99 99 78 53 44 48 46 40 35 33 32 35 38 42 40 34 35 41 43 39 29 20 54 69 60 53 59 91 91 98 84 99 97 85 99 89
80 83 99 98 100 100 100 99 98 100 68 44 33 31 27 25 24 26 32 35 34 32 30 31 34 34 28 23 21 19 26 64 65 57 59 69 98 98 99 94 92 99 97
62 65 96 99 99 99 100 100 100 100 100 80 45 37 38 42 44 49 53 55 54 52 47 43 40 38 36 34 34 30 24 18 47 60 65 76 83 98 98 100 99 97 98
39 41 44 66 80 90 91 99 100 100 100 100 96 76 66 73 86 99 95 87 74 67 59 51 43 42 48 49 33 26 24 17 18 46 65 78 90 88 99 97 96 100 100
27 24 24 31 37 42 44 54 86 98 96 97 88 78 82 89 98 99 90 98 91 79 56 46 50 52 50 52 42 25 29 30 18 27 58 64 80 96 98 98 99 99 99
20 14 12 12 13 14 15 23 49 76 64 76 94 96 98 98 100 99 97 97 90 89 82 52 68 77 82 53 39 34 30 52 55 41 78 88 92 98 94 96 95 69 60
10 6 6 6 6 7 7 7 13 53 66 60 70 87 97 99 99 93 88 95 89 86 74 65 66 85 89 82 71 50 55 77 78 78 80 87 98 98 99 98 72 73 70
6 6 7 8 9 9 10 9 8 8 23 65 65 76 82 83 92 97 99 99 100 100 93 92 89 88 89 81 69 68 77 86 85 89 91 98 89 91 81 63 80 54 85
6 7 9 10 12 13 13 13 12 12 9 8 27 59 63 66 82 78 82 85 97 100 100 99 91 93 76 76 74 63 60 68 78 79 87 80 66 49 52 90 78 97 100
6 8 10 12 14 16 16 17 16 16 16 15 14 12 9 9 10 14 31 68 85 89 93 91 84 70 71 73 69 70 79 87 84 92 53 87 81 56 96 100 100 100 100
7 9 11 13 15 17 19 19 20 20 20 19 19 18 17 16 15 14 12 10 10 15 41 74 94 99 98 98 98 98 99 99 99 99 96 99 100 100 100 99 97 90 77
8 9 11 13 16 18 20 22 23 23 23 23 22 22 21 21 20 19 18 17 15 13 11 10 13 21 46 72 88 97 99 99 100 100 99 98 96 90 72 39 16 11 12
8 9 10 13 15 18 20 22 24 25 26 26 26 26 25 24 24 23 22 22 21 20 19 18 17 16 15 14 12 11 11 11 12 12 12 13 14 14 15 15 14 12 11
8 9 10 11 13 16 19 21 23 24 26 27 28 29 29 29 29 28 27 26 26 25 24 23 22 21 20 20 19 18 18 17 16 15 14 13 13 12 12 10 8 6 5
7 8 8 10 11 13 16 19 20 20 20 20 21 22 24 26 29 30 31 31 31 30 29 28 27 25 24 22 21 20 18 17 16 16 16 16 15 14 11 8 6 5 4
7 7 8 8 9 10 12 15 17 19 18 17 16 15 15 17 20 25 28 31 32 33 32 32 32 31 29 27 26 25 23 22 22 22 21 20 16 13 9 7 5 4 4
Wind_Speed
30 32 36 40 42 44 40 39 40 39 43 46 48 49 48 48 48 50 51 51 50 48 46 44 42 41 40 37 36 37 35 31 29 29 29 28 28 26 25 24 22 19 17
32 34 36 39 41 40 41 43 43 41 41 44 46 50 51 52 51 49 50 53 54 53 52 49 47 45 44 42 40 40 39 34 33 34 33 33 32 32 27 25 25 23 21
30 31 33 34 36 38 38 43 45 47 46 43 45 47 51 54 56 54 51 51 52 54 55 53 51 48 47 46 44 42 41 37 35 35 37 37 36 33 29 27 26 26 25
33 36 39 41 42 43 45 47 49 49 49 47 46 46 48 51 53 55 54 51 50 51 53 55 55 52 50 49 46 45 44 41 41 39 40 40 38 37 35 33 29 28 28
38 42 44 49 50 52 54 53 51 50 48 48 46 46 45 45 46 51 56 56 53 52 52 51 52 55 54 52 50 48 48 47 45 43 41 42 40 40 38 37 32 29 27
45 50 53 54 52 51 50 45 42 41 41 44 44 44 43 40 41 44 49 53 55 54 53 54 53 52 55 56 53 51 50 50 49 47 46 45 43 42 42 40 38 35 30
47 41 35 33 31 31 30 33 35 35 35 37 39 40 41 40 38 38 41 44 49 53 53 52 54 53 53 56 57 57 54 53 56 53 50 46 45 43 43 45 39 37 40
32 30 26 24 24 25 26 29 31 30 29 30 33 36 37 37 37 36 36 38 39 41 42 44 46 49 49 51 55 56 55 54 56 44 50 49 47 43 42 40 40 43 42
24 21 22 24 25 29 32 31 28 27 23 23 24 26 29 31 33 33 33 35 36 35 34 35 37 40 42 45 49 54 59 58 57 59 57 53 53 47 43 45 41 44 48
24 25 29 30 26 20 21 23 23 19 16 17 17 18 19 20 23 26 28 31 33 35 35 35 35 36 36 36 37 42 51 56 55 54 54 61 56 45 49 47 42 46 47
21 25 31 29 30 24 18 14 17 15 12 12 13 15 16 16 16 18 19 22 26 31 34 34 35 36 38 37 36 37 39 48 53 57 55 49 41 61 55 49 45 45 47
19 24 29 22 23 24 20 11 9 14 11 11 12 12 12 14 13 13 14 16 17 20 23 26 28 31 33 34 35 35 39 39 45 51 54 53 44 50 56 44 42 36 33
19 22 27 22 28 28 26 20 8 6 7 12 13 14 12 11 15 17 16 16 17 18 20 23 26 29 32 34 36 38 37 39 40 45 44 44 52 42 42 34 36 42 42
21 20 21 22 22 23 24 23 20 13 5 6 12 7 5 8 10 10 11 14 16 18 19 21 25 28 30 30 31 34 37 35 38 42 38 38 37 45 49 37 41 42 40
17 18 20 20 22 25 26 28 33 24 4 3 3 4 7 13 14 12 12 14 14 14 15 16 17 19 24 27 30 29 28 29 33 35 37 34 35 34 37 39 39 36 33
15 17 19 19 21 23 26 31 37 39 23 23 10 5 10 11 9 8 11 15 16 16 17 17 17 20 22 26 25 25 25 24 24 28 25 28 32 33 35 36 29 34 40
13 15 16 17 20 24 28 31 34 36 35 29 26 24 23 18 5 4 10 13 13 16 17 18 20 18 18 20 23 23 21 22 23 24 28 32 31 33 34 29 35 39 43
10 13 16 18 20 22 25 26 27 27 27 26 22 23 25 25 24 18 10 13 21 20 19 21 21 18 15 13 13 15 19 22 25 27 30 28 35 28 30 35 33 36 40
8 10 13 15 17 19 21 22 23 22 22 20 19 18 18 19 19 19 21 19 14 11 11 14 15 16 17 13 11 15 20 23 26 27 30 27 30 32 29 29 37 33 30
7 9 11 12 14 15 16 17 17 17 18 17 16 16 16 16 17 17 17 14 16 18 17 8 3 6 8 12 14 14 21 21 23 22 20 22 28 33 31 28 26 27 29
6 7 9 10 11 13 14 15 15 15 14 14 14 14 14 14 14 14 15 15 15 15 16 14 12 9 2 4 3 6 6 4 14 17 19 18 18 20 22 26 28 32 35
6 6 7 8 10 10 11 12 13 13 14 15 15 14 14 13 12 11 11 10 11 12 11 10 10 9 7 6 6 5 6 9 12 14 18 21 25 28 32 34 35 36 37
8 7 7 7 8 9 10 10 10 10 11 11 12 13 13 13 12 11 11 10 9 8 8 9 10 10 10 10 11 13 14 15 17 19 22 25 27 30 32 34 36 37 39
11 11 10 10 10 10 11 11 11 11 12 12 11 11 11 12 12 11 11 10 11 11 11 10 10 10 11 12 14 15 17 18 20 22 24 26 29 31 33 35 36 36 36
15 14 14 14 14 14 14 15 15 15 15 15 15 15 15 15 15 15 15 14 14 14 14 14 14 15 14 15 16 17 19 20 22 24 26 28 30 32 33 34 35 36 36
19 17 18 18 18 18 18 18 18 17 18 18 18 17 16 15 15 15 15 15 14 14 14 14 14 15 16 17 17 18 20 22 24 26 27 28 30 31 33 34 35 35 35
Wind_Direction
278 275 268 265 268 269 271 266 260 256 252 251 249 248 247 245 244 244 244 245 244 246 249 249 252 254 255 256 256 259 258 256 258 260 260 262 264 266 267 267 270 271 270
266 264 264 265 270 277 275 274 268 260 255 254 249 247 246 245 245 242 242 243 244 244 246 248 248 252 254 254 252 255 258 257 254 257 261 262 265 268 268 270 271 271 268
266 270 271 272 270 269 271 272 273 273 264 256 256 250 245 244 243 242 242 243 244 244 243 244 246 247 251 252 252 252 254 255 258 258 258 260 265 273 269 269 269 268 266
275 278 280 277 275 273 277 278 279 278 275 269 259 254 251 247 244 243 242 241 243 246 245 244 244 246 247 249 250 251 253 256 256 258 257 261 264 268 269 271 268 270 269
286 284 284 286 284 282 280 280 279 277 272 268 265 259 252 250 245 244 242 239 239 241 245 245 242 242 245 247 248 249 250 252 254 255 258 259 262 263 264 268 265 262 264
284 285 284 283 279 278 279 277 276 273 269 264 259 257 254 252 249 245 244 241 240 240 241 243 244 242 242 244 247 249 250 251 254 253 254 257 259 262 266 268 267 269 263
300 297 298 292 274 271 272 279 278 271 266 261 256 251 250 248 248 245 243 242 241 241 243 244 245 245 243 242 244 247 248 251 249 253 253 255 256 256 262 262 269 265 269
311 307 306 305 282 270 271 280 278 268 267 265 260 250 244 243 244 243 243 241 239 240 245 247 246 246 246 245 246 244 248 248 243 248 255 256 254 258 260 263 265 269 270
4 352 339 322 300 282 277 279 283 272 270 269 261 253 244 239 242 244 244 242 240 238 240 243 245 247 247 249 246 244 244 249 249 249 250 256 256 255 255 259 258 262 268
6 3 354 346 335 318 292 273 272 274 271 268 249 231 237 242 245 248 247 244 240 239 240 243 248 251 252 249 247 246 245 244 246 251 251 246 257 260 253 254 260 255 264
8 358 358 354 353 340 310 296 276 274 264 259 247 235 230 233 241 244 242 241 238 237 240 244 247 252 253 251 247 245 246 245 245 248 251 244 252 248 254 253 255 259 262
3 8 9 14 8 16 17 348 317 269 256 240 237 236 239 243 246 249 246 242 241 242 244 246 247 248 251 254 254 250 243 244 248 247 249 251 256 248 254 260 254 250 252
7 13 17 18 32 31 29 28 355 324 275 238 226 230 239 251 251 248 248 250 249 248 247 248 249 250 251 251 253 253 250 243 243 244 249 254 250 259 249 246 246 251 253
1 7 17 21 34 41 41 42 34 18 331 255 240 232 254 259 271 275 264 255 246 244 247 252 253 254 252 251 252 252 252 247 242 240 242 246 254 257 252 255 258 251 256
355 3 15 13 22 29 30 32 30 29 104 135 174 213 250 265 277 283 268 258 250 250 263 260 259 261 259 251 251 250 248 248 245 239 236 245 249 249 248 252 258 254 264
350 7 11 12 16 27 33 35 36 44 71 90 119 188 239 258 279 268 269 273 263 266 264 255 264 280 270 260 250 248 249 247 241 231 234 241 244 245 244 247 255 260 260
355 9 15 23 24 30 33 37 39 42 48 57 59 57 52 54 34 318 244 258 255 256 262 263 259 281 274 263 254 241 238 233 225 228 233 241 243 249 243 240 246 255 260
3 8 11 17 20 27 30 36 42 42 44 53 56 56 54 50 46 32 358 264 265 269 265 267 267 272 268 263 268 243 240 234 233 234 237 243 248 256 258 262 267 263 269
14 11 9 14 20 23 25 26 33 37 39 44 56 53 43 48 47 39 40 37 25 349 304 287 274 264 252 240 231 234 252 253 248 252 249 249 257 261 264 263 259 261 256
5 4 3 9 18 24 25 22 25 29 29 27 37 46 45 40 38 40 37 37 41 48 47 37 317 277 261 245 213 228 241 246 243 254 260 257 255 259 253 254 251 259 267
344 349 356 3 9 15 15 16 15 16 18 20 21 26 28 27 29 28 24 22 27 25 26 28 42 56 119 209 188 152 187 182 218 220 232 236 235 245 261 267 271 272 273
314 329 339 346 354 2 3 1 2 0 359 2 3 5 8 11 10 11 12 10 10 13 11 10 9 7 358 339 313 299 280 279 279 276 275 275 275 273 271 271 273 275 276
290 298 305 314 322 332 338 340 343 344 347 348 348 349 349 349 349 351 350 350 348 341 336 336 336 333 327 319 311 305 299 294 288 283 280 278 278 278 278 278 278 279 280
273 278 283 288 296 305 310 315 321 327 330 331 333 334 335 334 333 333 332 332 333 333 333 330 324 315 306 300 296 293 289 285 283 281 280 281 282 282 283 284 284 285 285
274 278 283 287 291 297 303 309 312 315 317 320 322 325 327 329 329 328 327 327 327 327 326 323 319 314 309 306 303 300 299 299 299 298 298 299 299 298 296 295 293 291 290
281 284 284 286 290 294 295 298 299 302 305 308 310 311 312 313 314 313 313 312 310 307 305 302 299 297 297 298 299 300 300 300 300 300 299 297 295 294 292 291 290 290 291